Regional Weather Roundup
Issued by NWS State College, PA

Home | Current Version | Previous Version | Graphics & Text | Print | Product List | Glossary Off
Versions: 1 2 3 4 5 6 7 8 9 10 11 12 13 14 15 16 17 18 19 20 21 22 23 24 25 26 27 28 29 30 31 32 33 34 35 36 37 38 39 40 41 42 43 44 45 46 47 48 49 50

000
ASUS41 KCTP 030103
RWRCTP

REGIONAL WEATHER ROUNDUP
NATIONAL WEATHER SERVICE STATE COLLEGE PA
800 PM EST MON MAR 02 2015

Note: "fair" indicates few or no clouds below 12,000 feet with no
significant weather and/or obstructions to visibility.

* = STATION THAT DOES NOT REPORT PRECIPITATION /E.G. RAIN...SNOW...ETC/
    THUNDER OR FOG.

PAZ002>004-007>009-013>016-020>023-029>032-030200-
WESTERN PENNSYLVANIA

CITY           SKY/WX    TMP DP  RH WIND       PRES   REMARKS
ERIE           CLEAR     18  12  77 SW5       30.44F WCI  11
MEADVILLE        N/A     18   7  62 CALM      30.38F
FRANKLIN*      FAIR      18   5  57 NW5       30.39S WCI  11
NEW CASTLE     FAIR      22   8  54 CALM      30.43R
BEAVER COUNTY  CLEAR     23  14  68 W3        30.40R
BUTLER*        CLEAR     21  12  68 CALM      30.41S
PITTSBURGH INT PTCLDY    24  13  62 W3        30.41R
PITTSBURGH     CLEAR     24  10  55 W6        30.40R
INDIANA*       MOCLDY    21  16  79 CALM      30.42R
LATROBE        PTCLDY    25  14  63 CALM      30.42R
WASHINGTON CO* CLEAR     21  16  79 CALM      30.42S
$$

PAZ004>006-010>012-017>019-024>028-033>037-041-042-045-046-049>053-030200-
CENTRAL PENNSYLVANIA

CITY           SKY/WX    TMP DP  RH WIND       PRES   REMARKS
BRADFORD       MOCLDY    16   6  65 NW10      30.31R WCI   4
DUBOIS         CLEAR     20   7  57 W7        30.33R WCI  11
CLEARFIELD     CLEAR     23   9  55 W6        30.34S
JOHNSTOWN      CLEAR     20  11  68 W6        30.30R WCI  12
ALTOONA        CLEAR     23  11  60 W5        30.35R
STATE COLLEGE  CLEAR     27  10  50 W9        30.34S
WILLIAMSPORT   CLEAR     30   6  36 NW9       30.36R
SELINSGROVE    CLEAR     30   9  41 NW7       30.36R
FT INDIANTOWN  NOT AVBL
CAPITAL CITY   CLEAR     30  13  49 W12       30.37R
HARRISBURG     PTCLDY    28  14  55 NW10      30.37R
YORK           CLEAR     28  14  55 W10       30.37R
$$

PAZ038>040-043-044-047-048-054-055-060>062-067>071-030200-
EASTERN PENNSYLVANIA

CITY           SKY/WX    TMP DP  RH WIND       PRES   REMARKS
SCRANTON       CLEAR     27   6  41 NW14G23   30.30R
MOUNT POCONO   CLEAR     22   6  50 NW10G22   30.19R WCI  11
ALLENTOWN      CLEAR     28   7  41 NW6       30.31R
QUAKERTOWN*    CLEAR     32  10  40 NW5       30.30R
READING        CLEAR     29  11  47 W6        30.33R
LANCASTER      CLEAR     27  15  61 W12       30.34R
COATESVILLE    CLEAR     30  18  59 NW14      30.32S
POTTSTOWN      CLEAR     28  14  55 W3        30.33R
BLUE BELL      CLEAR     34  14  44 W5        30.31R
DOYLESTOWN     CLEAR     30  11  45 W5        30.29R
WILLOW GROVE   NOT AVBL
NORTH PHILA    CLEAR     35  12  38 W12       30.32R
PHILADELPHIA   CLEAR     35  15  44 W10       30.34R
$$


USA.gov is the U.S. government's official web portal to all federal, state and local government web resources and services.